RH
24 25 29 29 32 34 38 37 36 34 33 33 33 31 28 27 26 26 25 25 24 22 22 22 21 21 20 20 22 27 30 30 29 28 27 26 26 26 26 25 25 24 23 22
23 25 24 26 29 30 33 35 37 35 35 36 37 33 31 30 28 26 25 24 24 23 23 23 22 22 22 22 22 27 30 31 31 32 31 29 29 28 27 27 28 27 26 24
23 21 23 25 28 30 32 34 35 35 38 39 39 35 31 29 29 28 26 24 23 22 22 22 23 22 22 22 23 27 30 33 34 34 32 31 31 31 31 31 32 31 29 27
24 23 23 25 27 31 32 35 37 38 40 44 38 42 30 29 29 30 28 26 24 24 24 23 24 25 25 25 28 31 34 35 35 35 35 34 34 34 35 35 35 34 33 29
26 28 28 28 29 31 33 36 40 42 47 44 39 49 30 25 25 26 27 26 25 26 27 27 26 26 26 26 27 29 33 34 36 37 38 37 37 38 39 39 38 38 37 35
30 29 28 31 33 33 36 39 45 49 51 58 38 42 39 26 24 24 26 28 30 31 30 30 30 30 30 30 31 31 35 38 40 41 40 40 41 42 42 41 41 41 41 40
31 31 31 32 36 38 39 43 54 56 59 52 44 46 33 28 26 24 26 28 29 32 32 33 34 33 33 34 35 34 38 41 42 42 42 44 45 45 44 43 43 42 42 43
38 33 30 28 30 37 42 44 56 53 58 53 51 53 36 31 31 31 30 29 32 36 38 39 39 39 38 38 39 39 41 43 44 44 45 46 48 48 47 47 48 46 46 47
38 36 31 30 31 34 39 44 40 47 50 62 45 38 32 32 32 34 32 34 36 37 40 42 43 43 43 42 43 43 45 48 49 49 49 49 52 52 52 51 50 49 49 49
29 34 33 33 32 34 36 37 46 50 52 53 44 41 40 34 39 43 42 41 42 44 45 45 43 43 43 44 46 49 51 52 52 53 54 57 58 58 55 54 54 53 52 52
32 35 39 36 36 35 37 40 40 43 52 56 43 37 36 36 39 45 48 48 49 50 50 50 49 48 48 48 50 53 54 56 55 57 60 63 61 60 60 59 56 52 55 57
36 42 47 39 37 38 38 38 40 51 50 55 60 37 33 37 42 49 50 53 57 60 59 57 56 55 55 56 57 59 60 61 62 66 68 69 66 66 65 61 57 58 60 62
43 48 54 49 49 47 47 42 40 42 48 48 63 39 37 41 45 53 55 59 62 62 63 62 64 63 61 62 62 63 63 64 66 69 72 73 73 70 61 60 61 63 65 64
58 58 54 43 44 49 55 52 54 59 61 56 53 52 44 52 60 58 62 64 65 63 63 67 67 65 65 63 64 64 64 67 71 77 79 78 73 67 64 66 66 66 66 66
67 64 66 56 62 70 70 67 68 73 68 77 51 68 52 65 70 71 71 72 71 71 73 72 71 69 68 66 66 68 72 76 81 86 82 77 72 69 66 68 67 67 69 70
93 88 87 75 74 83 83 79 84 86 89 93 90 81 86 80 82 83 87 89 87 84 80 75 72 71 72 77 81 85 88 90 90 87 82 76 71 68 67 68 70 74 74 69
97 98 97 94 92 95 89 78 81 83 89 95 98 97 86 86 81 84 85 83 81 83 86 84 82 80 80 82 85 88 92 89 87 82 78 73 69 67 70 74 73 73 68 62
96 98 98 95 96 95 81 83 84 90 94 95 94 92 88 83 76 75 84 86 82 79 82 85 86 88 88 92 89 89 84 85 83 77 74 73 72 73 69 67 65 68 65 62
94 98 97 97 97 87 80 91 94 94 96 95 92 88 89 87 77 77 77 76 71 69 71 79 85 88 89 85 81 81 85 83 78 76 74 76 74 71 68 67 65 66 64 64
98 98 98 97 97 96 91 93 84 96 95 89 88 84 84 86 88 74 79 79 74 69 67 68 78 81 83 82 84 86 82 77 75 73 73 74 71 69 68 66 64 62 64 63
94 98 97 97 97 97 97 93 77 89 89 78 76 79 80 82 85 81 86 84 80 73 70 72 74 78 83 85 82 81 78 74 74 74 68 66 67 67 67 65 65 67 66 65
84 88 87 90 97 95 90 79 77 75 70 66 69 73 77 78 81 84 86 86 85 79 76 76 77 80 84 86 85 80 78 77 74 70 67 66 65 64 65 66 69 68 65 66
80 70 71 70 66 64 62 63 58 56 62 68 74 76 81 75 76 81 83 88 88 91 90 89 91 87 85 84 78 77 77 74 72 69 67 68 68 70 69 67 64 63 66 69
70 68 71 60 45 46 45 40 43 52 53 54 58 61 74 77 76 74 79 86 89 92 92 96 98 94 89 78 76 80 76 73 70 69 70 69 67 64 58 60 65 67 71 74
62 61 60 57 40 36 29 32 40 46 50 46 48 55 60 69 69 77 73 77 86 90 96 97 98 98 88 81 81 83 79 74 72 71 71 67 59 59 63 65 66 70 73 75
54 53 55 49 33 40 35 39 50 51 54 56 58 55 70 74 70 73 68 72 79 87 94 97 98 98 91 88 87 85 82 81 75 70 70 68 63 59 61 65 70 72 73 74